Location: Old Broadwell Mill Observatory
(33.8015°N, 85.8137°W)
Time: 00:05:27
(UTC-06:00)

Amateur Radio Satellites - All Passes

Search period start: 07 February 2016 23:35
Search period end: 08 February 2016 23:35
Location: Old Broadwell Mill Observatory, 33.8015°N, 85.8137°W

Satellite Date Start Highest point End Downlink Frequencies (MHz)
Time Altitude Azimuth
VELOX 1 07 Feb 23:35:32 23:38:19 16° 266° (W) 23:41:06 145.980
SWISSCUBE 07 Feb 23:43:55 23:45:26 11° 64° (ENE) 23:46:57 437.505
CUSAT 1 07 Feb 23:50:00 23:52:51 12° 79° (E) 23:55:46 437.405
POLYITAN 1 08 Feb 00:16:52 00:19:02 14° 293° (WNW) 00:21:12 437.675
ITUPSAT 1 08 Feb 00:16:58 00:20:44 24° 69° (ENE) 00:24:32 437.325
QB50P2 08 Feb 00:17:48 00:19:48 13° 293° (WNW) 00:21:48 145.880/145.840
PHONESAT 2.4 08 Feb 00:25:08 00:28:09 34° 148° (SSE) 00:31:10 2401.200-2431.200
BEESAT 08 Feb 00:26:33 00:30:41 31° 71° (ENE) 00:34:51 436.000
Oscar 19 08 Feb 00:30:52 00:35:24 31° 97° (E) 00:39:55 437.125/150
Cosmos 2491 08 Feb 00:31:16 00:35:50 15° 66° (ENE) 00:40:22 435.465 / 435.565
SPROUT 08 Feb 00:31:42 00:33:35 13° 267° (W) 00:35:28 437.525
BUGSAT 1 08 Feb 00:32:08 00:34:55 18° 291° (WNW) 00:37:40 437.445
JAS-2 08 Feb 00:37:36 00:42:01 24° 94° (E) 00:46:11 435.910
Gurwin Techsat 1B 08 Feb 00:44:47 00:47:45 15° 93° (E) 00:50:41 435.225
TISAT 1 08 Feb 00:47:55 00:51:11 21° 264° (W) 00:54:27 437.305
SWISSCUBE 08 Feb 01:17:56 01:22:38 64° 259° (WSW) 01:27:23 437.505
YUBILEINY 08 Feb 01:19:34 01:23:23 14° 78° (ENE) 01:27:12 435.215
CUSAT 1 08 Feb 01:26:11 01:33:46 76° 95° (E) 01:41:57 437.405
ITAMSAT 1 08 Feb 01:34:57 01:39:10 24° 96° (E) 01:43:22 435.822/435.867
DANDE 08 Feb 01:40:58 01:47:59 58° 92° (E) 01:56:09 436.750
ITUPSAT 1 08 Feb 01:54:18 01:58:24 29° 263° (W) 02:02:33 437.325
PHONESAT 2.4 08 Feb 02:02:13 02:05:22 43° 342° (NNW) 02:08:32 2401.200-2431.200
BEESAT 08 Feb 02:04:47 02:08:26 22° 264° (W) 02:12:08 436.000
BEESAT 3 08 Feb 02:05:57 02:09:39 37° 57° (ENE) 02:13:18 437.485
Oscar 19 08 Feb 02:10:25 02:14:32 25° 292° (WNW) 02:18:39 437.125/150
MOZHAYETS 4 08 Feb 02:20:21 02:23:57 24° 70° (ENE) 02:27:34
JAS-2 08 Feb 02:22:11 02:27:11 33° 291° (WNW) 02:31:50 435.910
Gurwin Techsat 1B 08 Feb 02:22:46 02:27:58 54° 287° (WNW) 02:33:07 435.225
Cosmos 2491 08 Feb 02:25:01 02:33:48 89° 84° (E) 02:42:36 435.465 / 435.565
BEESAT 2 08 Feb 02:26:07 02:29:53 39° 57° (ENE) 02:33:37 435.950
STARS 08 Feb 02:30:59 02:35:12 47° 74° (ENE) 02:39:26 437.465
KKS-1 08 Feb 02:41:56 02:46:22 64° 258° (WSW) 02:50:48 437.445
YUBILEINY 08 Feb 03:10:01 03:18:47 88° 97° (E) 03:27:39 435.215
CUSAT 1 08 Feb 03:11:11 03:16:48 21° 292° (WNW) 03:22:36 437.405
ITAMSAT 1 08 Feb 03:13:57 03:18:37 33° 290° (WNW) 03:23:15 435.822/435.867
AO-7 08 Feb 03:23:27 03:31:43 64° 104° (ESE) 03:39:54 29.400- 29.500
DANDE 08 Feb 03:25:18 03:31:27 27° 291° (WNW) 03:38:18 436.750
M-CUBED/EXP-1 PRIME 08 Feb 03:30:10 03:33:17 32° 104° (ESE) 03:36:32 437.505
PHONESAT 2.4 08 Feb 03:40:22 03:43:07 24° 359° (N) 03:45:51 2401.200-2431.200
AUBIESAT-1 08 Feb 03:41:50 03:45:05 38° 105° (ESE) 03:48:30 437.475
BEESAT 3 08 Feb 03:45:04 03:47:02 13° 251° (WSW) 03:48:59 437.485
SO-50 08 Feb 03:49:57 03:53:38 22° 109° (ESE) 03:57:23 436.795
MOZHAYETS 4 08 Feb 03:57:10 04:00:58 26° 264° (W) 04:04:49
HORYU 2 08 Feb 04:03:55 04:08:22 70° 102° (ESE) 04:12:48 437.375
AIST 2 08 Feb 04:04:21 04:08:21 46° 58° (ENE) 04:12:17 435.215
BEESAT 2 08 Feb 04:05:35 04:07:23 13° 252° (WSW) 04:09:11 435.950
Cosmos 2504 08 Feb 04:09:53 04:17:44 46° 88° (E) 04:25:58 435.465 / 435.565
STARS 08 Feb 04:10:01 04:11:46 12° 267° (W) 04:13:32 437.465
Cosmos 2491 08 Feb 04:25:09 04:29:21 14° 281° (W) 04:33:33 435.465 / 435.565
CUBESAT XI-V 08 Feb 04:31:01 04:35:37 62° 75° (ENE) 04:40:16 437.345
CUTE-I 08 Feb 04:39:38 04:40:21 10° 91° (E) 04:41:03 437.470
Cubesat XI-IV 08 Feb 04:50:39 04:53:33 15° 93° (E) 04:56:28 437.490
M-CUBED/EXP-1 PRIME 08 Feb 05:06:36 05:07:40 11° 295° (WNW) 05:08:46 437.505
LilacSat-2 08 Feb 05:07:31 05:09:34 14° 94° (E) 05:11:37 437.200
YUBILEINY 08 Feb 05:11:43 05:16:40 16° 293° (WNW) 05:21:40 435.215
AO-7 08 Feb 05:17:23 05:23:48 26° 301° (WNW) 05:30:14 29.400- 29.500
PHONESAT 2.4 08 Feb 05:17:48 05:20:53 37° 15° (NNE) 05:23:57 2401.200-2431.200
AUBIESAT-1 08 Feb 05:19:20 05:19:21 10° 296° (WNW) 05:19:23 437.475
SO-50 08 Feb 05:29:21 05:33:53 37° 305° (NW) 05:38:29 436.795
AIST 2 08 Feb 05:44:54 05:46:23 12° 252° (WSW) 05:47:51 435.215
GOMX 1 08 Feb 05:47:46 05:48:31 10° 90° (E) 05:49:15 467.674
STRAND 1 08 Feb 05:58:51 06:03:52 65° 75° (ENE) 06:08:58 437.568
Cosmos 2504 08 Feb 06:03:42 06:11:11 34° 286° (WNW) 06:19:02 435.465 / 435.565
BRITE-PL 08 Feb 06:06:31 06:11:02 44° 98° (E) 06:15:13 437.365/2234.400
CUBESAT XI-V 08 Feb 06:12:50 06:13:20 10° 269° (W) 06:13:51 437.345
CUTE-I 08 Feb 06:15:28 06:20:51 76° 285° (WNW) 06:26:13 437.470
Cubesat XI-IV 08 Feb 06:28:39 06:33:55 57° 286° (WNW) 06:39:10 437.490
O/OREOS (USA 219) 08 Feb 06:40:12 06:42:31 14° 99° (E) 06:44:51 437.305
LilacSat-2 08 Feb 06:40:38 06:43:55 28° 287° (WNW) 06:47:12 437.200
CANX-2 08 Feb 06:46:59 06:48:16 11° 92° (E) 06:49:32 2200.000
PHONESAT 2.4 08 Feb 06:55:04 06:58:12 44° 211° (SSW) 07:01:19 2401.200-2431.200
PRISM 08 Feb 07:00:01 07:04:09 86° 252° (WSW) 07:08:22 437.425
DOVE 4 08 Feb 07:13:40 07:17:51 58° 100° (E) 07:21:55 437.250
GOMX 1 08 Feb 07:22:42 07:26:59 48° 286° (WNW) 07:31:02 467.674
COMPASS 1 08 Feb 07:35:29 07:38:40 21° 95° (E) 07:41:51 437.405
CUTE 1.7 + AOD 2 08 Feb 07:35:33 07:39:35 40° 98° (E) 07:43:36 437.475
STRAND 1 08 Feb 07:41:51 07:43:25 11° 268° (W) 07:44:59 437.568
HO-68 08 Feb 07:42:30 07:49:32 54° 101° (ESE) 07:56:31 435.675
SEEDS 08 Feb 07:45:26 07:49:26 38° 98° (E) 07:53:23 437.485
BRITE-PL 08 Feb 07:46:30 07:49:00 14° 295° (WNW) 07:51:26 437.365/2234.400
JUGNU 08 Feb 08:04:58 08:08:04 14° 168° (SSE) 08:11:08 437.505
AAUSAT CUBESAT 2 08 Feb 08:05:25 08:09:21 38° 98° (E) 08:13:17 437.432
ZACube-1 08 Feb 08:11:11 08:13:02 13° 93° (E) 08:14:54 437.345
O/OREOS (USA 219) 08 Feb 08:17:16 08:21:29 41° 293° (WNW) 08:25:45 437.305
CANX-2 08 Feb 08:20:12 08:24:20 48° 285° (WNW) 08:28:27 2200.000
FUNcube-1 08 Feb 08:20:36 08:23:12 16° 94° (E) 08:25:49 145.935
CINEMA 3 08 Feb 08:22:18 08:26:25 65° 283° (WNW) 08:30:33 145.822/145.860
GONETS M04 08 Feb 08:34:54 08:43:30 71° 93° (E) 08:52:08
CUBEBUG 2 08 Feb 08:42:04 08:46:14 67° 101° (E) 08:50:29 437.445
UWE-3 08 Feb 08:46:56 08:51:03 53° 100° (E) 08:55:15 435.000/436.395/437.385
AO-85 08 Feb 08:51:06 08:53:49 14° 105° (ESE) 08:56:36 145.980
UNISAT 6 08 Feb 08:53:21 08:57:13 32° 72° (ENE) 09:01:03 437.425
Oscar 11 08 Feb 08:55:12 08:59:31 61° 101° (E) 09:03:48 145.826/435.025
COMPASS 1 08 Feb 09:10:40 09:14:10 26° 289° (WNW) 09:17:39 437.405
CUTE 1.7 + AOD 2 08 Feb 09:12:45 09:15:03 14° 292° (WNW) 09:17:21 437.475
Cosmos 2499 08 Feb 09:16:02 09:24:21 58° 91° (E) 09:33:00 435.465 / 435.565
PCSat 08 Feb 09:18:10 09:21:01 15° 104° (ESE) 09:23:53 145.827
RS-15 08 Feb 09:18:11 09:24:21 17° 98° (E) 09:30:37 29.354- 29.394
SEEDS 08 Feb 09:22:26 09:24:47 15° 292° (WNW) 09:27:07 437.485
POLYITAN 1 08 Feb 09:29:24 09:32:22 19° 69° (ENE) 09:35:19 437.675
QB50P2 08 Feb 09:30:02 09:33:06 20° 69° (ENE) 09:36:10 145.880/145.840
HO-68 08 Feb 09:31:07 09:36:46 26° 297° (WNW) 09:42:24 435.675
DELFI C3 08 Feb 09:34:08 09:38:12 83° 283° (WNW) 09:42:14 145.870
ANTELSAT 08 Feb 09:37:53 09:42:15 72° 259° (W) 09:46:32 437.575/2403.000
SRMSAT 08 Feb 09:38:14 09:40:25 12° 165° (SSE) 09:42:36 437.500
AAUSAT CUBESAT 2 08 Feb 09:42:16 09:44:30 14° 292° (WNW) 09:46:43 437.432
BUGSAT 1 08 Feb 09:43:57 09:45:45 13° 67° (ENE) 09:47:33 437.445
TIGRISAT 08 Feb 09:45:29 09:49:47 61° 259° (W) 09:54:02 435.000
ZACube-1 08 Feb 09:45:30 09:49:28 41° 286° (WNW) 09:53:29 437.345
JUGNU 08 Feb 09:52:12 09:56:23 20° 177° (S) 10:00:32 437.505
FUNcube-1 08 Feb 09:55:43 09:59:30 33° 287° (WNW) 10:03:19 145.935
POPSAT HIP 1 08 Feb 09:59:13 10:03:12 41° 74° (ENE) 10:07:11 437.405
NANOSAT C BR1 08 Feb 10:05:00 10:09:04 47° 74° (ENE) 10:13:08 145.865
DUCHIFAT 1 08 Feb 10:07:15 10:11:19 48° 74° (ENE) 10:15:24 145.980
AISAT 08 Feb 10:09:13 10:11:49 15° 94° (E) 10:14:24 437.250
50 SAT 08 Feb 10:09:53 10:12:26 17° 95° (E) 10:14:58 437.505
QB50P1 08 Feb 10:11:49 10:16:00 61° 75° (ENE) 10:20:11 145.935-145.965
HUMSAT D 08 Feb 10:20:01 10:24:07 60° 284° (WNW) 10:28:16 437.325/437.525
ESTCUBE 1 08 Feb 10:22:46 10:26:32 25° 96° (E) 10:30:17 437.505/2401.250
UWE-3 08 Feb 10:26:17 10:27:04 10° 293° (WNW) 10:27:50 435.000/436.395/437.385
AO-85 08 Feb 10:28:28 10:33:42 65° 300° (WNW) 10:39:10 145.980
UNISAT 6 08 Feb 10:31:07 10:33:58 17° 265° (W) 10:36:49 437.425
UKube-1 08 Feb 10:31:26 10:34:57 24° 97° (E) 10:38:27 .
AIST 1 08 Feb 10:31:46 10:36:08 76° 277° (W) 10:40:33
CUBEBUG 1 08 Feb 10:33:28 10:36:59 23° 96° (E) 10:40:28 437.445
GONETS M04 08 Feb 10:34:59 10:41:01 21° 291° (WNW) 10:47:08
DX 1 08 Feb 10:39:47 10:43:49 36° 99° (E) 10:47:49 434.975-435.025
JAS-2 08 Feb 10:49:22 10:50:26 10° 59° (ENE) 10:51:31 435.910
PCSat 08 Feb 10:58:30 11:03:50 60° 298° (WNW) 11:09:12 145.827
POLYITAN 1 08 Feb 11:04:15 11:07:56 29° 262° (W) 11:11:38 437.675
QB50P2 08 Feb 11:05:03 11:08:42 27° 263° (W) 11:12:21 145.880/145.840
Cosmos 2499 08 Feb 11:10:51 11:17:53 27° 288° (WNW) 11:25:09 435.465 / 435.565
BUGSAT 1 08 Feb 11:16:41 11:20:43 44° 261° (W) 11:24:45 437.445
RS-15 08 Feb 11:23:50 11:34:52 87° 116° (ESE) 11:46:32 29.354- 29.394
SRMSAT 08 Feb 11:24:47 11:28:52 19° 174° (S) 11:32:58 437.500
VELOX 1 08 Feb 11:27:44 11:32:06 62° 285° (WNW) 11:36:26 145.980
POPSAT HIP 1 08 Feb 11:37:12 11:39:08 13° 267° (W) 11:41:04 437.405
JUGNU 08 Feb 11:40:52 11:44:43 18° 188° (S) 11:48:35 437.505
50 SAT 08 Feb 11:43:18 11:46:25 24° 288° (WNW) 11:49:32 437.505
NANOSAT C BR1 08 Feb 11:43:51 11:45:00 11° 267° (W) 11:46:10 145.865
Oscar 19 08 Feb 11:43:54 11:48:27 32° 70° (ENE) 11:53:00 437.125/150
AISAT 08 Feb 11:44:20 11:48:24 37° 287° (WNW) 11:52:25 437.250
DUCHIFAT 1 08 Feb 11:46:13 11:47:15 11° 267° (W) 11:48:17 145.980
ESTCUBE 1 08 Feb 11:59:33 12:03:13 24° 290° (WNW) 12:06:51 437.505/2401.250
Gurwin Techsat 1B 08 Feb 12:02:13 12:05:36 17° 65° (ENE) 12:08:58 435.225
UKube-1 08 Feb 12:07:27 12:10:52 23° 290° (WNW) 12:14:17 .
CUBEBUG 1 08 Feb 12:09:39 12:13:09 24° 290° (WNW) 12:16:38 437.445
CUSAT 1 08 Feb 12:10:08 12:15:27 36° 73° (ENE) 12:19:31 437.405
AO-85 08 Feb 12:14:48 12:15:18 10° 319° (NW) 12:15:47 145.980
DX 1 08 Feb 12:17:02 12:19:40 16° 293° (WNW) 12:22:18 434.975-435.025
SPROUT 08 Feb 12:19:06 12:23:15 53° 285° (WNW) 12:27:23 437.525
JAS-2 08 Feb 12:26:37 12:34:19 66° 74° (ENE) 12:41:29 435.910
DANDE 08 Feb 12:28:23 12:34:35 34° 71° (ENE) 12:39:28 436.750
AO-7 08 Feb 12:33:01 12:34:52 11° 50° (NE) 12:36:43 29.400- 29.500
BEESAT 08 Feb 12:33:28 12:34:07 10° 92° (E) 12:34:47 436.000
TISAT 1 08 Feb 12:34:42 12:38:52 77° 101° (E) 12:43:01 437.305
ITAMSAT 1 08 Feb 12:49:18 12:53:29 26° 68° (ENE) 12:57:43 435.822/435.867
SRMSAT 08 Feb 13:13:14 13:17:23 20° 185° (S) 13:21:33 437.500
SWISSCUBE 08 Feb 13:22:06 13:26:42 44° 99° (E) 13:31:15 437.505
Oscar 19 08 Feb 13:23:29 13:27:43 25° 264° (W) 13:31:58 437.125/150
YUBILEINY 08 Feb 13:25:41 13:33:40 36° 75° (ENE) 13:41:33 435.215
Cosmos 2491 08 Feb 13:27:58 13:33:42 20° 81° (E) 13:39:26 435.465 / 435.565
JUGNU 08 Feb 13:32:17 13:33:00 10° 197° (SSW) 13:33:42 437.505
RS-15 08 Feb 13:39:50 13:48:53 27° 321° (NW) 13:58:23 29.354- 29.394
Gurwin Techsat 1B 08 Feb 13:39:57 13:45:05 50° 260° (W) 13:50:15 435.225
CUSAT 1 08 Feb 13:53:30 13:57:05 18° 278° (W) 14:00:06 437.405
ITUPSAT 1 08 Feb 13:57:51 14:02:42 84° 284° (WNW) 14:07:30 437.325
SO-50 08 Feb 14:04:19 14:09:06 70° 60° (ENE) 14:13:41 436.795
BEESAT 08 Feb 14:07:30 14:12:16 64° 285° (WNW) 14:16:59 436.000
Cosmos 2504 08 Feb 14:11:15 14:14:05 12° 63° (ENE) 14:16:52 435.465 / 435.565
DANDE 08 Feb 14:11:38 14:17:18 29° 275° (W) 14:21:50 436.750
JAS-2 08 Feb 14:13:53 14:19:32 22° 266° (W) 14:24:58 435.910
M-CUBED/EXP-1 PRIME 08 Feb 14:14:21 14:17:22 23° 68° (ENE) 14:20:13 437.505
AO-7 08 Feb 14:17:45 14:25:57 62° 69° (ENE) 14:34:09 29.400- 29.500
AUBIESAT-1 08 Feb 14:25:30 14:28:38 26° 69° (ENE) 14:31:36 437.475
STARS 08 Feb 14:26:39 14:28:04 11° 93° (E) 14:29:28 437.465
ITAMSAT 1 08 Feb 14:28:12 14:32:47 32° 262° (W) 14:37:23 435.822/435.867
ISS 08 Feb 14:33:36 14:36:05 20° 129° (SE) 14:38:34 145.825
KKS-1 08 Feb 14:37:06 14:41:03 32° 98° (E) 14:44:59 437.445
HORYU 2 08 Feb 14:58:14 15:02:20 38° 73° (ENE) 15:06:26 437.375
SWISSCUBE 08 Feb 15:01:08 15:04:05 17° 294° (WNW) 15:07:03 437.505
SRMSAT 08 Feb 15:03:12 15:05:52 13° 194° (SSW) 15:08:32 437.500
Cosmos 2491 08 Feb 15:20:54 15:29:34 71° 277° (W) 15:38:17 435.465 / 435.565
YUBILEINY 08 Feb 15:22:18 15:30:24 42° 272° (W) 15:38:27 435.215
M-CUBED/EXP-1 PRIME 08 Feb 15:49:22 15:51:56 17° 258° (WSW) 15:54:24 437.505
BEESAT 3 08 Feb 15:54:35 15:57:11 17° 110° (ESE) 15:59:47 437.485
MOZHAYETS 4 08 Feb 15:55:04 15:59:44 85° 281° (WNW) 16:04:23
CUTE-I 08 Feb 15:56:56 15:59:17 13° 63° (ENE) 16:01:38 437.470
Cosmos 2504 08 Feb 16:00:23 16:09:01 77° 83° (E) 16:17:00 435.465 / 435.565
STARS 08 Feb 16:00:27 16:04:39 48° 286° (WNW) 16:08:51 437.465
AUBIESAT-1 08 Feb 16:00:54 16:03:09 15° 259° (WSW) 16:05:20 437.475
RS-15 08 Feb 16:04:12 16:07:41 11° 356° (N) 16:11:14 29.354- 29.394
Cubesat XI-IV 08 Feb 16:08:57 16:12:22 18° 65° (ENE) 16:15:47 437.490
ISS 08 Feb 16:09:32 16:12:24 28° 323° (NW) 16:15:16 145.825
AO-7 08 Feb 16:12:34 16:19:03 25° 264° (W) 16:25:37 29.400- 29.500
KKS-1 08 Feb 16:14:17 16:17:22 19° 292° (WNW) 16:20:27 437.445
BEESAT 2 08 Feb 16:15:45 16:18:34 19° 110° (ESE) 16:21:25 435.950
CUBESAT XI-V 08 Feb 16:32:23 16:35:56 21° 95° (E) 16:39:27 437.345
HORYU 2 08 Feb 16:36:30 16:39:00 15° 266° (W) 16:41:31 437.375
GOMX 1 08 Feb 16:51:26 16:53:15 12° 65° (ENE) 16:55:02 467.674
O/OREOS (USA 219) 08 Feb 16:52:51 16:55:44 16° 60° (ENE) 16:58:34 437.305
BRITE-PL 08 Feb 17:11:56 17:17:11 39° 72° (ENE) 17:22:22 437.365/2234.400
LilacSat-2 08 Feb 17:18:09 17:21:58 73° 77° (ENE) 17:25:46 437.200
Cosmos 2491 08 Feb 17:26:38 17:27:58 10° 297° (WNW) 17:29:20 435.465 / 435.565
BEESAT 3 08 Feb 17:31:07 17:34:40 31° 304° (NW) 17:38:15 437.485
CUTE-I 08 Feb 17:33:24 17:38:41 68° 258° (WSW) 17:44:00 437.470
Cubesat XI-IV 08 Feb 17:46:50 17:51:58 50° 260° (W) 17:57:09 437.490
BEESAT 2 08 Feb 17:52:44 17:56:15 29° 304° (NW) 17:59:47 435.950
Cosmos 2504 08 Feb 17:56:08 18:01:12 18° 281° (W) 18:06:07 435.465 / 435.565
AIST 2 08 Feb 17:58:40 18:02:07 25° 111° (ESE) 18:05:34 435.215
HO-68 08 Feb 18:07:45 18:13:32 27° 64° (ENE) 18:19:19 435.675
CUBESAT XI-V 08 Feb 18:09:10 18:13:18 31° 289° (WNW) 18:17:24 437.345
STRAND 1 08 Feb 18:13:42 18:18:14 30° 97° (E) 18:22:44 437.568
DOVE 4 08 Feb 18:14:24 18:19:15 42° 74° (ENE) 18:23:54 437.250
RS-15 08 Feb 18:18:34 18:27:19 22° 34° (NE) 18:36:09 29.354- 29.394
GOMX 1 08 Feb 18:25:11 18:30:40 78° 259° (W) 18:35:59 467.674
CUTE 1.7 + AOD 2 08 Feb 18:25:28 18:28:16 18° 69° (ENE) 18:31:05 437.475
O/OREOS (USA 219) 08 Feb 18:30:58 18:35:17 41° 255° (WSW) 18:39:35 437.305
SEEDS 08 Feb 18:34:35 18:37:13 17° 69° (ENE) 18:39:52 437.485
PRISM 08 Feb 18:46:47 18:49:35 17° 95° (E) 18:52:21 437.425
GONETS M04 08 Feb 18:50:43 18:58:05 29° 73° (ENE) 19:05:25
BRITE-PL 08 Feb 18:51:06 18:55:38 25° 265° (W) 19:00:11 437.365/2234.400
AAUSAT CUBESAT 2 08 Feb 18:53:11 18:55:43 16° 69° (ENE) 18:58:16 437.432
AO-85 08 Feb 19:04:52 19:09:40 40° 55° (NE) 19:14:03 145.980
CANX-2 08 Feb 19:08:42 19:12:52 70° 77° (ENE) 19:17:04 2200.000
Cosmos 2499 08 Feb 19:15:20 19:19:44 15° 65° (ENE) 19:23:56 435.465 / 435.565
CINEMA 3 08 Feb 19:19:26 19:24:08 69° 77° (ENE) 19:28:38 145.822/145.860
CUBEBUG 2 08 Feb 19:36:32 19:40:28 34° 73° (ENE) 19:44:20 437.445
AIST 2 08 Feb 19:37:07 19:40:31 24° 306° (NW) 19:43:55 435.215
UWE-3 08 Feb 19:40:37 19:44:13 26° 72° (ENE) 19:47:45 435.000/436.395/437.385
Oscar 11 08 Feb 19:46:26 19:50:05 28° 72° (ENE) 19:53:46 145.826/435.025
PCSat 08 Feb 19:50:18 19:55:32 47° 60° (ENE) 20:00:44 145.827
STRAND 1 08 Feb 19:52:59 19:57:14 26° 291° (WNW) 20:01:27 437.568
DOVE 4 08 Feb 19:53:25 19:56:59 19° 266° (W) 20:00:28 437.250
HO-68 08 Feb 19:53:56 20:00:49 50° 259° (W) 20:07:47 435.675
COMPASS 1 08 Feb 19:56:46 20:00:51 63° 259° (W) 20:05:00 437.405
CUTE 1.7 + AOD 2 08 Feb 20:00:10 20:03:52 30° 263° (W) 20:07:35 437.475
SEEDS 08 Feb 20:08:56 20:12:39 31° 263° (W) 20:16:24 437.485
DELFI C3 08 Feb 20:16:49 20:20:19 31° 73° (ENE) 20:23:52 145.870
PRISM 08 Feb 20:21:17 20:24:55 30° 289° (WNW) 20:28:32 437.425
AAUSAT CUBESAT 2 08 Feb 20:27:14 20:30:55 32° 262° (W) 20:34:40 437.432
RS-15 08 Feb 20:30:09 20:42:24 72° 59° (ENE) 20:54:41 29.354- 29.394
ZACube-1 08 Feb 20:37:02 20:41:18 89° 75° (ENE) 20:45:29 437.345
AIST 1 08 Feb 20:44:00 20:46:57 18° 75° (ENE) 20:49:52
AO-85 08 Feb 20:46:23 20:49:45 19° 253° (WSW) 20:52:56 145.980
GONETS M04 08 Feb 20:46:44 20:55:09 53° 270° (W) 21:03:38
FUNcube-1 08 Feb 20:46:51 20:51:05 72° 259° (W) 20:55:15 145.935
Cosmos 2499 08 Feb 21:05:39 21:14:03 87° 264° (W) 21:21:44 435.465 / 435.565
HUMSAT D 08 Feb 21:07:24 21:11:22 52° 76° (ENE) 21:15:20 437.325/437.525
CUBEBUG 2 08 Feb 21:14:26 21:17:09 16° 266° (W) 21:19:49 437.445
UWE-3 08 Feb 21:17:26 21:20:37 20° 264° (W) 21:23:46 435.000/436.395/437.385
ESTCUBE 1 08 Feb 21:19:37 21:22:16 16° 67° (ENE) 21:24:55 437.505/2401.250
Oscar 11 08 Feb 21:23:05 21:26:11 19° 265° (W) 21:29:18 145.826/435.025
UKube-1 08 Feb 21:23:42 21:25:48 13° 66° (ENE) 21:27:55 .
CUBEBUG 1 08 Feb 21:27:06 21:29:11 13° 67° (ENE) 21:31:17 437.445
DX 1 08 Feb 21:32:08 21:35:21 20° 69° (ENE) 21:38:36 434.975-435.025
ANTELSAT 08 Feb 21:33:35 21:37:26 30° 98° (E) 21:41:19 437.575/2403.000
PCSat 08 Feb 21:34:48 21:38:30 19° 255° (WSW) 21:42:12 145.827
TIGRISAT 08 Feb 21:40:49 21:44:47 34° 98° (E) 21:48:49 435.000
DELFI C3 08 Feb 21:53:04 21:55:17 14° 266° (W) 21:57:32 145.870
QB50P1 08 Feb 22:02:20 22:04:18 13° 93° (E) 22:06:16 145.935-145.965
50 SAT 08 Feb 22:18:58 22:22:39 87° 78° (ENE) 22:26:22 437.505
VELOX 1 08 Feb 22:20:48 22:25:14 70° 75° (ENE) 22:29:42 145.980
AIST 1 08 Feb 22:20:48 22:24:34 29° 270° (W) 22:28:15
UNISAT 6 08 Feb 22:24:45 22:29:02 63° 284° (WNW) 22:33:25 437.425
AISAT 08 Feb 22:37:14 22:41:42 71° 258° (WSW) 22:46:10 437.250
ISS 08 Feb 22:39:52 22:43:01 47° 40° (NE) 22:46:09 145.825
RS-15 08 Feb 22:44:05 22:53:49 29° 257° (WSW) 23:03:36 29.354- 29.394
POLYITAN 1 08 Feb 22:52:32 22:56:40 58° 101° (E) 23:00:48 437.675
QB50P2 08 Feb 22:53:14 22:57:24 61° 101° (E) 23:01:34 145.880/145.840
ESTCUBE 1 08 Feb 22:54:26 22:58:41 41° 261° (W) 23:02:59 437.505/2401.250
UKube-1 08 Feb 22:57:18 23:01:27 44° 261° (W) 23:05:36 .
CUBEBUG 1 08 Feb 23:00:46 23:05:02 47° 260° (W) 23:09:20 437.445
Cosmos 2499 08 Feb 23:02:38 23:05:40 12° 283° (WNW) 23:08:37 435.465 / 435.565
BUGSAT 1 08 Feb 23:02:40 23:06:17 32° 98° (E) 23:09:52 437.445
DX 1 08 Feb 23:07:33 23:11:20 29° 262° (W) 23:15:09 434.975-435.025
SPROUT 08 Feb 23:08:31 23:12:46 67° 76° (ENE) 23:17:03 437.525
ANTELSAT 08 Feb 23:10:50 23:13:56 19° 291° (WNW) 23:17:03 437.575/2403.000
TIGRISAT 08 Feb 23:18:26 23:21:12 17° 291° (WNW) 23:23:59 435.000
TISAT 1 08 Feb 23:22:43 23:26:30 33° 72° (ENE) 23:30:18 437.305
POPSAT HIP 1 08 Feb 23:23:21 23:27:29 58° 284° (WNW) 23:31:36 437.405
